Location: *
(49.5667°N, 1.3667°W)
Time: 00:14:25
(UTC+00:00)

Cosmos 2237 Rocket - Pass Details

Date: 20 September 2019
Orbit: 833 x 851 km, 71.0° (Epoch: 15 October)

Event Time Altitude Azimuth Distance (km) Brightness Sun altitude
Rises 20:55:03 0° 320° (NW) 3,427 6.6 -26.0°
Reaches altitude 10° 20:58:08 10° 304° (NW) 2,487 5.7 -26.4°
Maximum altitude 21:02:05 20° 260° (W) 1,892 4.4 -26.9°
Drops below altitude 10° 21:06:02 10° 216° (SW) 2,475 4.6 -27.4°
Enters shadow 21:06:30 - 213° (SSW) 2,600 4.7 -27.5°
